Location: Newark
(33.6333°S, 78.8500°W)
Time: 14:05:35
(UTC+00:00)

Courier 1B - Visible Passes

Search period start: 23 October 2019 00:00
Search period end: 02 November 2019 00:00
Orbit: 962 x 1209 km, 28.3° (Epoch: 22 October)

Date Brightness Start Highest point End Pass type
(mag) Time Alt. Az. Time Alt. Az. Time Alt. Az.
23 Oct 8.7 09:01:37 18° NNW 09:05:18 30° NNE 09:10:49 10° ENE visible
24 Oct 8.8 08:11:08 24° NNE 08:11:43 24° NNE 08:16:48 10° ENE visible
25 Oct 9.5 07:20:36 16° NE 07:20:36 16° NE 07:22:37 10° ENE visible
25 Oct 8.2 09:07:29 20° NW 09:11:34 41° NNE 09:17:36 10° E visible
26 Oct 8.3 08:16:55 33° N 08:17:56 35° NNE 08:23:48 10° E visible
27 Oct 9.0 07:26:21 25° NE 07:26:21 25° NE 07:29:57 10° ENE visible
27 Oct 7.9 09:13:13 19° WNW 09:17:54 51° N 09:24:11 10° E visible
28 Oct 9.9 06:35:45 11° ENE 06:35:45 11° ENE 06:35:57 10° ENE visible
28 Oct 8.0 08:22:37 39° NNW 08:24:14 46° N 08:30:30 10° E visible
29 Oct 8.4 07:32:02 37° NE 07:32:02 37° NE 07:36:46 10° E visible
29 Oct 7.8 09:18:53 16° WNW 09:24:17 55° N 09:30:40 10° ENE visible
30 Oct 9.6 06:41:25 17° ENE 06:41:25 17° ENE 06:42:59 10° E visible
30 Oct 7.8 08:28:17 38° NW 08:30:35 54° N 08:37:01 10° E visible
31 Oct 8.0 07:37:41 49° NNE 07:37:41 49° NNE 07:43:21 10° E visible
31 Oct 7.8 09:24:34 12° W 09:30:40 53° N 09:37:02 10° ENE visible
01 Nov 9.2 06:47:06 23° ENE 06:47:06 23° ENE 06:49:40 10° E visible
01 Nov 7.7 08:33:59 33° WNW 08:36:58 56° N 08:43:27 10° ENE visible
